Juneau, AK

10:22 PM AKST on February 21, 2017 (GMT -0900)
Juneau International

Weather History for PAJN - November, 2013

Change the Weather History Date:

Thursday, November 14, 2013

  Actual Average Record
Temperature  
Mean Temperature 38 °F 33 °F  
Max Temperature 41 °F 38 °F 55 °F (1976)
Min Temperature 34 °F 29 °F 7 °F (1955)
Degree Days  
Heating Degree Days 27 32  
Month to date heating degree days 427 419  
Since 1 July heating degree days 1870 2104  
Moisture  
Dew Point 37 °F    
Average Humidity 96    
Maximum Humidity 100    
Minimum Humidity 92    
Precipitation  
Precipitation 0.43 in 0.20 in 1.56 in (1974)
Month to date precipitation 2.17 2.83  
Year to date precipitation 60.70 53.27  
Snow  
Snow T in 0.40 in 11.60 in (2011)
Month to date snowfall T 4.4  
Since 1 July snowfall T 5.2  
Since 1 September snowfall T 5.2  
Snow Depth 0.00 in    
Sea Level Pressure  
Sea Level Pressure 29.83 in    
Wind  
Wind Speed 9 mph (East)    
Max Wind Speed 21 mph    
Max Gust Speed 26 mph    
Visibility 7 miles    
Events Fog , Rain    
T = Trace of Precipitation, MM = Missing Value Source: NWS Daily Summary

Daily Weather History Graph

Daily Weather History Graph

Search for Another Location

Airport or City:

Trip Planner

Search our weather history database for the weather conditions in past years. The results will help you decide how hot, cold, wet, or windy it might be!

Date:

Astronomy

Nov. 14, 2013 Rise Set
Actual Time 7:45 AM AKST 3:39 PM AKST
Civil Twilight 6:59 AM AKST 4:25 PM AKST
Nautical Twilight 6:10 AM AKST 5:14 PM AKST
Astronomical Twilight 5:23 AM AKST 6:00 PM AKST
Moon 2:35 PM AKST (11/14) 4:12 AM AKST (11/14)
Length of Visible Light 9h 25m
Length of Day
7h 54m
Waxing Gibbous, 92% of the Moon is Illuminated
Nov 14
Waxing Gibbous
Nov 17
Full
Nov 25
Last Quarter
Dec 2
New
Dec 9
First Quarter

Hourly Weather History & Observations

Time (AKST) Temp. Windchill Dew Point Humidity Pressure Visibility Wind Dir Wind Speed Gust Speed Precip Events Conditions
12:53 AM 35.1 °F - 34.0 °F 96% 30.25 in 9.0 mi Calm Calm - 0.00 in   Overcast
1:53 AM 36.0 °F 33.3 °F 35.1 °F 97% 30.22 in 10.0 mi NNE 3.5 mph - N/A Fog Patches of Fog
3:53 AM 37.0 °F 33.3 °F 36.0 °F 96% 30.20 in 6.0 mi ENE 4.6 mph - 0.00 in Rain Light Rain
4:53 AM 37.0 °F - 36.0 °F 96% 30.18 in 10.0 mi Calm Calm - 0.01 in Rain Light Rain
5:53 AM 37.0 °F 31.0 °F 36.0 °F 96% 30.15 in 10.0 mi ENE 8.1 mph - 0.00 in   Overcast
6:23 AM 37.9 °F 33.5 °F 36.0 °F 93% 30.13 in 6.0 mi East 5.8 mph - 0.00 in Rain Light Rain
6:30 AM 37.9 °F 32.7 °F 36.0 °F 93% 30.13 in 4.0 mi ENE 6.9 mph - 0.00 in Rain Light Rain
6:53 AM 37.9 °F 30.9 °F 37.0 °F 97% 30.11 in 5.0 mi ENE 10.4 mph - 0.01 in Rain Light Rain
7:53 AM 37.9 °F 31.5 °F 36.0 °F 93% 30.05 in 8.0 mi East 9.2 mph - 0.01 in Rain Light Rain
8:53 AM 39.0 °F 33.4 °F 36.0 °F 89% 30.03 in 10.0 mi East 8.1 mph - 0.00 in Rain Light Rain
9:53 AM 39.0 °F 33.4 °F 37.0 °F 93% 30.01 in 10.0 mi ENE 8.1 mph - 0.00 in Rain Light Rain
10:53 AM 39.0 °F 31.8 °F 36.0 °F 89% 29.95 in 10.0 mi East 11.5 mph 19.6 mph 0.00 in   Overcast
11:53 AM 39.0 °F 30.6 °F 37.0 °F 93% 29.90 in 7.0 mi ESE 15.0 mph - 0.00 in Rain Light Rain
12:53 PM 39.0 °F 29.9 °F 37.0 °F 93% 29.87 in 6.0 mi ESE 17.3 mph 25.3 mph 0.01 in Rain Light Rain
1:53 PM 39.0 °F 30.6 °F 37.0 °F 93% 29.82 in 8.0 mi ESE 15.0 mph - 0.01 in   Overcast
2:53 PM 39.0 °F 30.3 °F 37.0 °F 93% 29.77 in 10.0 mi East 16.1 mph - 0.03 in Rain Light Rain
3:53 PM 39.0 °F 30.6 °F 36.0 °F 89% 29.73 in 8.0 mi East 15.0 mph - 0.04 in Rain Light Rain
4:22 PM 39.9 °F 31.4 °F 37.0 °F 89% 29.70 in 9.0 mi East 16.1 mph - 0.01 in Rain Light Rain
4:53 PM 39.0 °F 31.4 °F 37.0 °F 93% 29.69 in 5.0 mi East 12.7 mph - 0.02 in Rain Light Rain
5:24 PM 39.0 °F 32.8 °F 37.0 °F 93% 29.66 in 4.0 mi East 9.2 mph - 0.01 in Rain Light Rain
5:53 PM 39.0 °F 31.4 °F 37.0 °F 93% 29.63 in 4.0 mi East 12.7 mph - 0.01 in Rain Light Rain
6:40 PM 39.0 °F 32.3 °F 37.0 °F 93% 29.59 in 7.0 mi East 10.4 mph 17.3 mph 0.01 in Rain Light Rain
6:53 PM 39.0 °F 32.3 °F 37.0 °F 93% 29.58 in 7.0 mi East 10.4 mph - 0.01 in Rain Light Rain
7:38 PM 39.9 °F 32.5 °F 37.9 °F 93% 29.55 in 4.0 mi East 12.7 mph 19.6 mph 0.01 in Rain Light Rain
7:53 PM 39.0 °F 31.8 °F 37.0 °F 93% 29.55 in 4.0 mi East 11.5 mph 19.6 mph 0.01 in Rain Light Rain
8:53 PM 39.9 °F 32.5 °F 37.9 °F 93% 29.52 in 5.0 mi East 12.7 mph - 0.01 in Rain Light Rain
9:41 PM 39.9 °F 34.5 °F 37.9 °F 93% 29.51 in 6.0 mi ENE 8.1 mph - 0.01 in Rain Light Rain
9:53 PM 39.9 °F 35.8 °F 39.0 °F 97% 29.52 in 5.0 mi NE 5.8 mph - 0.01 in Rain Light Rain
10:41 PM 37.9 °F - 36.0 °F 93% 29.52 in 5.0 mi Calm Calm - 0.12 in Rain Rain
10:53 PM 37.9 °F - 37.0 °F 97% 29.53 in 5.0 mi Calm Calm - 0.15 in Rain Rain
11:53 PM 37.0 °F 30.4 °F 35.1 °F 93% 29.54 in 8.0 mi WNW 9.2 mph - 0.08 in Rain Light Rain